Regional Weather Roundup
Issued by NWS

Home | Current Version | Previous Version | Graphics & Text | Print | Product List | Glossary On
Versions: 1 2 3 4 5 6 7 8 9 10 11 12 13 14 15 16 17 18 19 20 21 22 23 24 25 26 27 28 29 30 31 32 33 34 35 36 37 38 39 40 41 42 43 44 45 46 47 48 49 50
000
ASUS43 KOAX 251010
RWRNE

WEATHER ROUNDUP FOR NEBRASKA
NATIONAL WEATHER SERVICE OMAHA NE
400 AM CST SUN JAN 25 2015

NOTES: SATELLITE DATA IS BEING USED TO AUGMENT CLOUD COVER ABOVE
       12000 FEET.
       "FAIR" INDICATES FEW OR NO CLOUDS BELOW 12,000 FEET WITH NO
       SIGNIFICANT WEATHER AND/OR OBSTRUCTIONS TO VISIBILITY.

  * THESE STATIONS DO NOT REPORT WEATHER SUCH AS RAIN...SNOW OR FOG.

NEZ001>004-019>022-054>056-251100-
NEBRASKA PANHANDLE

CITY           SKY/WX    TMP DP  RH WIND       PRES   REMARKS
SCOTTSBLUFF    CLEAR     37  27  67 NW25G32   30.09S WCI  25
ALLIANCE       CLEAR     34  24  67 NW18      30.05R WCI  23
CHADRON        CLEAR     33  25  72 W16       30.07R WCI  23
KIMBALL        CLOUDY    36  26  69 NW14      30.10S WCI  27
SIDNEY         PTCLDY    34  25  69 NW13      30.10R WCI  25
$$

NEZ057>060-069>072-079>082-251100-
SOUTHWEST NEBRASKA

CITY           SKY/WX    TMP DP  RH WIND       PRES   REMARKS
NORTH PLATTE   CLEAR     33  27  78 NW13      29.96R WCI  24
IMPERIAL       CLEAR     39  23  52 NW23G32   30.02R WCI  28
LEXINGTON      PTCLDY    39  30  69 NW22G29   29.93R WCI  29
MCCOOK         CLEAR     38  28  67 NW18      29.97R WCI  28
OGALLALA       CLEAR     34  28  77 NW16      30.04R WCI  24
$$

NEZ005>010-023>029-035>040-094-251100-
NORTH CENTRAL NEBRASKA

CITY           SKY/WX    TMP DP  RH WIND       PRES   REMARKS
VALENTINE      CLEAR     37  29  72 NW23G37   29.95R WCI  26
AINSWORTH      CLOUDY    37  29  73 NW30G37   29.92R WCI  24
BROKEN BOW     CLOUDY    41  29  62 N35G49    29.87R
O`NEILL        LGT RAIN  35  34  96 NW17G23   29.87R WCI  25
ORD            CLOUDY    39  33  79 NW33G48   29.85R WCI  27
THEDFORD       MOCLDY    38  31  73 NW23G32   29.96R WCI  28
$$

NEZ041-046>049-061>064-073>077-083>087-251100-
SOUTH CENTRAL NEBRASKA

CITY           SKY/WX    TMP DP  RH WIND       PRES   REMARKS
GRAND ISLAND   CLOUDY    39  34  82 NW24G32   29.83R WCI  28
AURORA         CLOUDY    39  33  81 N26G33    29.82R WCI  27
HASTINGS       LGT RAIN  40  34  79 NW23G35   29.83R WCI  30
HEBRON         CLOUDY    42  32  68 NW21G33   29.79S
HOLDREGE       MOCLDY    40  28  61 NW22G31   29.89R WCI  30
KEARNEY *      CLOUDY    43  28  56 NW25G32   29.87R
YORK           CLOUDY    37  32  81 N21G38    29.79R WCI  27
$$

NEZ011>018-030>034-042>045-251100-
NORTHEAST NEBRASKA

CITY           SKY/WX    TMP DP  RH WIND       PRES   REMARKS
NORFOLK        LGT SNOW  34  31  88 N21G32    29.78R FOG     WCI  22
ALBION         RAIN      35  32  88 NW20G30   29.82R WCI  24
BLAIR          DRIZZLE   36  32  86 NW25G37   29.69R WCI  24
COLUMBUS *     CLOUDY    34  27  75 NW22G31   29.80R WCI  22
FREMONT        CLOUDY    37  32  85 NW22G30   29.74R WCI  25
TEKAMAH        FLURRIES  35  32  88 NW22      29.72R WCI  23
WAYNE          FLURRIES  33  32  95 NW21G29   29.78R WCI  21
$$

NEZ050>053-065>068-078-088>093-251100-
SOUTHEAST NEBRASKA

CITY           SKY/WX    TMP DP  RH WIND       PRES   REMARKS
LINCOLN        CLOUDY    38  32  79 NW24G31   29.75R WCI  27
OMAHA EPPLEY   LGT RAIN  37  34  89 NW29G41   29.67R WCI  25
BEATRICE       CLOUDY    39  35  84 NW28G36   29.74R WCI  28
FALLS CITY     CLOUDY    43  36  76 NW18G29   29.65S
NEBRASKA CITY  DRIZZLE   38  32  80 NW23G36   29.67R WCI  27
PLATTSMOUTH    LGT RAIN  37  34  89 NW29      29.66R WCI  24
$$

NEZ044-045-051>053-067-251100-
OMAHA AREA

CITY           SKY/WX    TMP DP  RH WIND       PRES   REMARKS
OMAHA EPPLEY   LGT RAIN  37  34  89 NW29G41   29.67R WCI  25
BLAIR          DRIZZLE   36  32  86 NW25G37   29.69R WCI  24
FREMONT        CLOUDY    37  32  85 NW22G30   29.74R WCI  25
MILLARD        LGT RAIN  37  33  85 NW21G30   29.71R WCI  27
OFFUTT AFB     LGT RAIN  39  36  87 NW22G30   29.66R WCI  29
PLATTSMOUTH    LGT RAIN  37  34  89 NW29      29.66R WCI  24
WAHOO          CLOUDY    37  31  79 NW24G33   29.73R WCI  25
$$



USA.gov is the U.S. government's official web portal to all federal, state and local government web resources and services.